Regional Weather Roundup
Issued by NWS

Home | Current Version | Previous Version | Graphics & Text | Print | Product List | Glossary On
Versions: 1 2 3 4 5 6 7 8 9 10 11 12 13 14 15 16 17 18 19 20 21 22 23 24 25 26 27 28 29 30 31 32 33 34 35 36 37 38 39 40 41 42 43 44 45 46 47 48 49 50
000
ASUS45 KSLC 231210
RWRUT

UTAH REGIONAL WEATHER ROUNDUP
NATIONAL WEATHER SERVICE SALT LAKE CITY UT
600 AM MDT WED JUL 23 2014

UTZ001>011-023>025-231300-

NORTHERN UTAH

CITY           SKY/WX    TMP DP  RH WIND       PRES   REMARKS
HILL AFB       CLEAR     70  34  26 E20G25    30.15S
LOGAN          NOT AVBL
OGDEN          CLEAR     70  34  26 S9        30.12R
PROVO AIRPORT  CLEAR     64  39  39 SE5       30.19R
SALT LAKE CITY PTCLDY    74  38  27 SE10      30.10S
VERNAL         CLEAR     60  33  36 CALM      30.26R
WENDOVER       CLEAR     72  25  17 NE10      30.11R
HEBER CITY     CLEAR     50  41  71 CALM      30.28S
WEST JORDAN    CLEAR     81  45  28 S9        30.15R

$$

UTZ012>022-026-027-231300-

SOUTHERN UTAH

CITY           SKY/WX    TMP DP  RH WIND       PRES   REMARKS
BRYCE CANYON   PTCLDY    54  35  48 W8        30.45R
CEDAR CITY     PTCLDY    63  36  36 CALM      30.25S
MILFORD        CLEAR     67  35  30 SW10      30.20R
MOAB/CYNLANDS  CLEAR     80  43  26 SE14      30.16S
PRICE          PTCLDY    65  16  15 CALM      30.30R
ST GEORGE      SUNNY     75  28  17 SE9       30.07R
KANAB            N/A     64  34  32 NE7       30.26R

$$

REGIONAL REPORTS     COLORADO/ARIZONA

CITY           SKY/WX    TMP DP  RH WIND       PRES   REMARKS
CRAIG, CO      CLEAR     43  37  79 SW3       30.37R
GRAND JUNCTION CLEAR     74  32  21 E15       30.24R
RIFLE          CLEAR     62  32  32 CALM      30.32R
MONTROSE       CLEAR     64  42  44 SE7       30.36R
CORTEZ         CLEAR     74  42  31 CALM      30.35S
PAGE, AZ       PTCLDY    80  38  22 S3        30.16R
GRAND CANYON   PTCLDY    55  42  61 E3        30.37S
KINGMAN        CLEAR     71  36  27 SE9       30.09R
FLAGSTAFF      PTCLDY    56  41  57 CALM      30.41R

$$

REGIONAL REPORTS    NEVADA/IDAHO/WYOMING

CITY           SKY/WX    TMP DP  RH WIND       PRES   REMARKS
LAS VEGAS, NV  CLEAR     84  31  14 S7        29.94R
ELY            CLEAR     51  20  29 SE13      30.29S
ELKO           CLEAR     63  40  42 N5        30.18R
POCATELLO, ID  CLEAR     65  47  52 SW10      30.15R
BURLEY         CLEAR     67  45  45 W16       30.11R
EVANSTON, WY   CLEAR     60  28  29 SE8       30.37R
ROCK SPRINGS   PTCLDY    63  22  20 SE6       30.35R

$$



USA.gov is the U.S. government's official web portal to all federal, state and local government web resources and services.